Probability
0 0 0 0 1 2 3 3 3 3 3 2 1 0 0 0 0 0 0 0 0 0 0 0 0 0 0 0 0 0 0 0 0 0 0 0 0 0 0 0 0 0 0
0 0 0 0 1 2 3 3 3 3 3 2 1 0 0 0 0 0 0 0 0 0 0 0 0 0 0 0 0 0 0 0 0 0 0 0 0 0 0 0 0 0 0
0 0 0 0 0 1 3 3 3 3 3 1 0 0 0 0 0 0 0 0 0 0 0 0 0 0 0 1 1 0 0 0 0 0 0 0 0 0 0 0 0 0 0
0 0 0 0 0 1 2 2 2 2 2 1 0 0 0 0 0 0 0 0 0 1 1 1 1 1 0 1 2 1 1 1 1 1 1 0 0 0 0 0 0 0 0
0 0 0 0 0 0 1 1 1 1 1 0 0 0 0 0 0 0 0 0 0 1 2 1 1 2 1 1 2 3 2 2 2 2 2 1 0 0 0 0 0 0 0
1 1 0 0 0 0 0 0 0 0 0 0 0 0 0 0 0 0 0 0 0 1 1 1 1 2 2 3 3 3 3 3 3 3 2 1 0 0 0 0 0 0 0
2 2 1 0 1 1 1 0 0 0 0 0 0 0 0 0 0 0 0 0 0 0 0 1 1 1 2 3 3 3 3 3 3 3 3 1 0 0 0 0 0 0 0
5 3 1 1 2 2 2 1 1 1 1 0 0 0 0 0 0 0 0 0 0 0 0 0 1 1 2 2 3 3 3 3 2 2 2 1 0 0 0 0 0 0 0
6 4 2 2 3 3 3 3 3 3 2 1 1 2 1 1 0 0 0 0 0 0 0 0 0 1 2 3 3 3 3 3 1 1 1 1 0 0 0 0 0 0 0
6 4 4 4 5 5 4 4 5 5 3 2 1 2 2 2 1 0 0 0 0 0 0 0 0 1 2 3 4 4 3 3 2 0 0 1 1 1 0 0 0 0 0
5 5 5 6 7 7 7 7 8 7 6 4 3 2 2 2 1 1 0 0 0 0 1 1 1 1 2 2 2 3 2 2 1 0 1 2 2 1 0 0 0 0 0
8 8 8 9 9 9 10 13 12 11 10 9 7 5 3 2 1 1 1 0 0 1 2 3 2 1 1 1 1 1 1 1 0 0 1 2 2 1 0 0 0 1 1
13 12 12 14 14 13 13 16 16 15 14 13 11 9 6 3 1 1 2 1 0 1 2 2 2 1 0 1 2 1 0 0 0 0 0 1 1 0 0 0 0 1 2
15 16 17 19 19 18 17 18 18 18 17 15 12 12 10 5 3 3 4 3 1 0 0 0 0 0 1 2 3 2 1 1 0 0 0 0 0 0 0 0 0 1 1
18 19 19 20 21 21 21 21 20 19 19 17 14 13 12 8 5 5 6 5 3 1 0 0 0 1 2 2 2 3 3 2 1 0 0 0 0 0 0 0 0 0 0
21 20 19 19 21 22 23 23 22 20 19 19 18 17 16 13 10 9 9 7 6 5 3 2 2 3 3 3 3 4 4 3 1 0 0 0 0 0 0 0 0 0 0
20 20 18 19 21 23 24 23 20 18 18 21 22 23 21 18 16 15 13 12 10 9 7 4 5 7 7 5 5 5 4 4 2 1 0 0 0 0 0 0 0 0 0
17 17 16 17 20 23 23 22 18 16 17 20 22 24 24 22 20 19 17 15 12 10 8 6 7 9 9 8 7 6 5 5 4 1 0 0 0 0 0 0 0 0 0
13 13 12 14 17 19 19 18 17 17 18 20 21 22 23 22 22 20 17 14 11 8 8 8 8 9 9 9 9 8 8 7 5 2 1 0 0 0 0 0 0 0 0
11 11 13 16 16 16 15 17 18 19 20 22 23 23 21 20 19 16 13 11 10 9 9 9 9 9 10 11 12 12 11 10 8 5 4 3 2 1 0 0 0 0 0
15 15 17 19 19 16 14 14 16 17 19 23 25 24 20 15 13 10 8 8 9 9 9 9 9 9 10 12 14 13 11 10 9 9 8 7 5 4 3 1 0 0 0
22 21 21 22 21 17 11 8 9 12 17 22 26 24 18 11 8 5 3 3 4 5 6 8 8 8 10 12 13 12 10 8 7 8 9 8 8 9 7 3 0 0 0
25 24 23 23 21 15 9 4 4 9 16 22 25 24 18 11 8 6 5 4 4 4 4 6 8 9 10 12 13 13 12 10 8 7 8 8 9 9 7 4 1 0 0
23 24 24 24 21 15 8 3 3 8 15 20 23 22 18 13 10 9 8 9 9 8 5 5 7 8 9 9 11 12 13 12 10 9 8 6 5 5 4 4 2 0 0
21 22 24 24 21 16 8 3 3 8 14 17 18 17 15 13 10 7 8 11 12 11 8 5 5 5 4 4 5 8 10 10 9 8 8 5 2 1 2 3 2 0 0
20 22 23 23 21 17 10 3 3 9 13 15 14 13 12 11 8 6 7 10 11 11 10 8 4 2 1 0 1 4 8 9 8 8 8 6 3 1 2 2 1 0 0
Wind_Speed
3 3 2 2 2 3 3 2 1 2 1 1 1 2 2 2 2 2 6 9 7 6 6 7 7 8 7 7 7 7 7 7 7 7 7 7 7 7 7 6 6 5 5
3 2 3 2 2 2 1 1 2 1 0 1 1 1 1 2 3 2 4 7 8 7 6 7 7 8 8 8 8 7 7 7 7 7 7 7 7 7 7 7 6 6 5
3 2 2 2 2 2 2 2 2 1 2 2 1 1 1 1 2 2 3 3 6 9 8 7 7 7 8 8 8 8 7 7 7 7 7 7 8 8 8 7 7 7 6
3 3 2 2 2 2 2 2 2 1 0 0 1 1 1 2 2 2 3 3 3 4 8 9 8 7 8 8 8 9 9 8 8 8 8 8 8 8 8 8 8 7 7
4 3 2 1 3 2 2 2 2 1 1 1 2 2 1 1 2 3 2 3 3 3 4 8 9 7 8 8 8 8 9 10 10 9 9 9 9 8 8 8 8 8 8
5 4 3 3 3 2 2 1 1 1 1 1 2 1 1 2 2 2 3 3 4 5 5 5 6 8 9 8 8 8 9 10 10 10 10 9 10 9 9 9 9 9 9
5 4 3 3 3 3 3 3 2 3 2 1 2 1 2 3 3 3 3 3 4 4 4 4 4 4 6 11 9 8 9 9 10 10 10 10 10 10 10 10 10 9 9
6 5 5 4 4 3 4 3 3 2 2 2 2 2 2 3 3 3 3 4 4 3 4 5 4 4 4 4 7 10 9 9 9 10 10 10 10 9 10 11 11 10 10
7 6 5 5 4 4 4 4 4 4 3 3 2 2 2 1 1 3 3 3 3 3 4 3 5 5 6 4 5 9 9 8 8 9 10 10 9 9 10 11 11 11 11
7 6 6 5 5 5 4 5 4 3 4 3 2 2 3 2 2 1 3 4 4 4 4 4 4 5 6 5 4 5 8 8 8 9 9 9 9 9 10 11 12 11 11
7 7 6 6 6 5 5 5 3 4 4 4 3 3 3 3 4 4 2 2 3 3 4 4 4 4 5 5 5 6 9 8 7 8 8 8 8 8 9 11 11 12 11
6 7 7 6 6 5 5 5 5 6 5 4 4 3 3 3 3 3 3 3 3 2 3 3 4 4 5 5 6 7 9 9 8 8 8 8 8 8 9 9 10 10 10
5 7 7 6 6 6 6 6 5 5 6 5 5 4 4 4 3 3 4 3 3 2 2 3 3 3 4 4 4 8 9 9 9 9 9 9 8 8 9 9 9 10 10
5 6 7 7 7 7 7 6 6 6 5 5 6 5 4 5 4 4 3 4 4 3 3 3 2 3 3 3 3 7 7 11 10 9 9 9 8 9 8 8 8 8 8
5 6 7 7 7 7 7 6 6 6 5 6 6 7 6 4 4 4 3 4 5 4 3 3 3 3 3 3 3 5 5 8 10 9 9 9 9 9 9 9 9 8 8
5 6 6 7 7 7 7 7 6 6 6 6 5 5 6 5 4 4 4 4 4 5 4 2 2 2 2 3 4 5 4 7 9 9 9 9 10 10 9 9 9 9 9
7 7 7 7 7 7 7 7 7 7 7 6 6 6 7 6 4 4 4 5 4 4 5 4 2 1 2 4 2 4 5 6 6 10 10 9 10 10 9 9 9 10 10
7 7 6 7 7 7 7 7 8 7 7 7 7 6 7 5 6 5 4 5 4 4 5 5 4 3 3 4 4 5 5 5 5 8 11 10 10 9 9 9 9 9 9
6 6 6 7 7 6 7 7 7 7 7 6 6 6 6 6 6 5 5 5 4 4 5 5 5 2 3 3 4 5 5 4 6 6 10 10 9 9 9 9 8 8 8
6 6 6 6 5 6 6 6 6 6 6 6 5 5 5 5 5 5 5 5 4 4 5 5 4 4 3 3 3 4 4 4 4 4 3 5 7 9 9 8 8 8 8
5 5 5 4 4 4 4 5 5 6 5 5 5 5 5 3 2 3 3 3 4 4 4 5 4 4 3 2 3 4 4 3 3 3 3 4 5 5 6 8 8 7 7
4 4 3 4 4 3 1 1 4 5 5 5 5 5 4 5 4 3 2 1 2 4 4 4 4 3 3 3 3 4 4 4 4 2 3 4 3 3 3 3 4 6 6
4 4 3 3 3 1 2 2 2 4 4 3 3 3 3 2 3 3 4 4 2 1 3 4 4 4 3 3 3 4 4 5 5 3 3 5 3 3 3 0 5 5 4
3 3 3 2 2 1 2 2 2 3 2 2 1 1 1 1 1 1 2 2 1 1 1 2 2 3 3 4 3 4 4 5 5 3 2 4 3 3 3 1 5 5 5
3 3 2 2 1 2 2 1 2 2 2 1 1 1 1 1 3 2 1 1 1 0 2 3 3 2 4 5 5 4 4 4 4 2 1 3 4 4 3 2 3 5 4
4 3 3 3 2 2 3 2 2 2 2 2 2 3 4 4 4 2 2 1 1 0 1 2 1 0 1 1 1 3 4 4 4 2 1 3 4 4 4 2 1 2 2
Wind_Direction
143 134 136 150 157 134 153 155 135 107 112 132 122 110 101 101 113 134 125 149 166 175 176 176 176 176 173 174 176 174 176 175 173 173 173 172 169 168 170 168 166 167 167
135 146 155 162 159 164 129 153 137 149 168 95 121 117 168 141 132 158 145 153 170 180 186 188 188 188 186 185 187 186 186 186 185 185 185 185 182 181 182 180 180 181 182
154 173 167 183 162 153 158 184 154 173 188 172 161 174 174 168 146 159 164 165 170 178 189 196 195 196 197 197 196 192 190 195 196 194 194 192 192 190 190 191 193 192 192
183 195 194 186 164 187 185 173 206 200 112 261 210 230 162 161 177 191 193 185 191 175 180 188 200 202 204 206 202 199 196 201 203 203 201 200 200 197 197 201 202 199 200
197 205 208 167 198 198 203 232 150 224 193 225 218 207 219 192 195 206 199 198 192 197 183 171 193 204 209 211 210 207 204 205 206 207 207 208 207 204 204 209 212 210 209
205 212 200 191 221 210 207 219 206 227 247 231 262 237 246 220 216 202 212 198 195 203 205 188 190 195 201 209 214 214 211 209 208 210 212 211 213 211 211 214 218 217 215
211 220 226 193 223 222 228 223 221 209 224 200 236 238 223 216 210 204 212 216 200 205 205 206 223 208 191 197 206 214 216 214 211 213 214 215 216 215 215 218 222 223 221
217 215 219 221 215 225 224 227 228 245 223 205 236 252 231 191 198 196 202 211 208 205 207 207 210 217 236 200 178 198 211 216 218 216 216 217 217 218 220 223 224 224 224
217 226 224 232 227 233 224 226 226 233 236 226 229 260 273 256 204 177 205 206 207 221 221 211 215 213 223 221 193 189 199 210 220 221 220 219 219 220 223 226 228 227 226
220 219 223 227 230 236 231 229 218 230 237 235 213 230 267 310 278 221 199 190 204 221 232 234 221 211 219 223 199 182 186 200 214 220 221 222 222 223 225 229 232 232 230
220 220 220 223 226 231 233 241 230 240 230 237 234 224 224 223 243 263 256 228 213 215 215 227 232 227 221 223 216 189 178 197 209 216 221 224 224 225 228 231 233 235 235
215 217 219 220 226 229 224 226 226 227 237 238 242 237 234 237 238 242 249 246 248 240 228 229 232 225 222 221 216 160 177 197 207 212 218 221 221 224 229 232 233 235 234
212 212 219 220 224 222 223 223 220 232 227 224 230 235 240 251 256 258 263 262 263 244 225 230 224 228 225 216 196 168 189 198 206 211 214 217 221 225 229 230 232 234 233
226 215 217 220 222 221 219 214 224 223 221 225 229 230 239 243 247 249 262 274 269 254 226 237 233 226 238 232 188 191 203 192 203 210 214 216 220 226 228 228 228 230 231
225 218 217 220 222 219 219 216 225 226 223 226 226 220 233 233 241 246 245 254 266 273 264 215 232 212 226 229 177 218 223 187 197 209 214 217 220 223 225 226 227 227 227
229 223 220 219 219 217 215 217 220 218 222 225 236 242 240 234 236 240 242 246 255 267 276 274 240 244 251 247 182 224 222 175 195 206 215 220 224 225 226 227 229 229 231
220 221 221 221 219 218 215 215 222 215 220 223 225 225 229 243 239 237 231 237 242 248 258 266 257 226 233 266 234 232 226 222 202 195 209 220 225 227 226 226 229 231 233
220 219 218 221 222 218 216 216 221 219 222 224 224 226 228 224 226 243 241 239 240 248 256 264 264 242 230 239 239 245 239 229 232 185 196 212 220 223 224 225 227 230 232
217 217 216 220 223 222 219 220 223 225 226 227 228 228 230 228 226 228 235 239 238 238 247 256 255 247 243 237 237 238 241 246 250 198 191 204 211 216 218 221 222 226 230
211 212 215 218 221 223 222 222 222 223 227 228 230 232 230 227 225 230 233 239 248 254 248 253 253 247 242 238 248 247 245 227 247 252 221 202 193 203 213 216 218 222 224
204 203 207 210 217 221 224 221 220 219 224 226 225 226 225 220 233 243 254 241 241 249 247 247 249 254 253 252 252 257 266 265 252 257 255 233 208 213 203 207 212 216 221
191 190 196 203 211 220 117 221 245 226 225 228 226 223 211 198 197 205 243 298 301 264 264 267 262 264 273 270 277 274 275 272 266 250 267 266 258 254 247 239 156 179 204
177 179 190 201 205 149 110 166 216 234 227 228 224 217 220 175 188 199 180 185 208 261 277 276 278 282 283 283 282 270 273 283 293 306 283 277 274 273 275 160 133 157 184
165 167 177 181 184 112 103 160 190 213 225 226 208 198 197 189 207 194 190 177 193 169 206 235 278 300 317 324 295 280 285 269 260 259 277 275 278 275 280 266 145 163 179
146 153 146 142 145 94 76 144 191 188 161 145 116 91 120 129 67 87 146 159 140 77 84 78 51 18 22 16 346 310 296 282 282 280 320 283 284 285 269 244 165 165 174
143 133 117 112 98 78 64 85 190 187 151 145 121 100 76 72 73 84 151 148 137 8 15 82 93 71 340 15 357 315 309 299 295 298 5 295 293 295 279 254 258 199 189